[[{"header":{"parameterUnit":"m.s-1","parameterCategory":2,"la1":30.2991,"la2":30.254,"lo1":-89.0895,"lo2":-89.0444,"dy":0.0017,"dx":0.0017,"nx":28,"ny":28,"refTime":"2024-03-10T09:00:00:Z","depth":"0","parameterNumber":2,"parameterNumberName":"U-component_of_CURRENTS"},"data":[0,0,0,0,0,0,0,0,0,0,0,0,0,0,0,0,0,0,0,0,0,0,0,0,0,0,0,0,0,0,0,0,0,0,0,0,0,0,0,0,0,0,0,0,0,0,0,0,0,0,0,0,0,0,0,0,0,0,0.1856,0.1856,0,0.1855,0.1855,0.1855,0.1838,0.1838,0.1837,0.1837,0.1771,0.1769,0.1768,0,0,0,0,0,0,0,0,0,0,0,0,0,0.1845,0.1845,0.1856,0.1856,0.1856,0.1855,0.1855,0.1855,0.1838,0.1838,0.1837,0.1837,0.1771,0.177,0.1768,0,0,0,0,0,0,0,0,0,0,0,0,0,0.1845,0.1845,0.1856,0.185,0.185,0.1855,0.1855,0.1855,0.1838,0.1838,0.1837,0.1837,0.1772,0.177,0.1767,0.1758,0,0,0.176,0.1759,0,0,0,0,0,0,0,0,0.1845,0.1845,0.185,0.185,0.185,0.1849,0.1827,0.182,0.1838,0.1839,0.1837,0.1837,0.1793,0.1789,0.1786,0.1755,0.1752,0.176,0.1758,0.1757,0.1757,0,0,0,0,0,0,0,0.1845,0.1845,0.1853,0.1851,0.1851,0.1849,0.1848,0.1826,0.1814,0.1839,0.1839,0.1843,0.1792,0.1789,0.1784,0.1751,0.176,0.1758,0.1756,0.1755,0.1743,0.1744,0,0,0,0,0,0,0.1851,0.1845,0.1853,0.1853,0.185,0.1849,0.1848,0.1847,0.1816,0.1812,0.1844,0.1843,0.1793,0.1787,0.1782,0.1784,0.1757,0.1755,0.1754,0.1742,0.1743,0.1745,0,0,0,0,0,0,0.185,0.1851,0.1853,0.1851,0.1852,0.185,0.1849,0.1847,0.1842,0.182,0.1815,0.184,0.1792,0.1785,0.1776,0.1781,0.1754,0.1752,0.1741,0.1742,0.1744,0.1779,0,0,0,0,0,0,0.185,0.1851,0.1856,0.1852,0.1852,0.1855,0.1849,0.1848,0.1847,0.1846,0.1816,0.1809,0.1792,0.178,0.1774,0.1777,0.175,0.1739,0.1741,0.1743,0.1776,0.1781,0.1786,0,0,0,0,0,0.1849,0.1858,0.1856,0.1857,0.1857,0.1856,0.1855,0.1851,0.1848,0.1845,0.1837,0.181,0.1789,0.1779,0.1771,0.1774,0.1738,0.1741,0.1743,0.1774,0.178,0.1786,0,0,0,0,0,0,0.1854,0.1857,0.1855,0.1863,0.1859,0.1854,0.186,0.1852,0.1844,0.1844,0.1819,0.1813,0.1809,0.1791,0.1781,0.1781,0.1761,0.1762,0.1787,0.1793,0.1797,0.1825,0.1748,0,0,0,0,0,0.1859,0.1864,0.1863,0.1868,0.187,0.1864,0.1864,0.1858,0.1852,0.1848,0.183,0.1818,0.1814,0.1803,0.1794,0.1785,0.1796,0.1786,0.1791,0.1795,0.1815,0.1834,0.1843,0.1753,0.1753,0.1753,0,0,0.186,0.1865,0.1866,0.1869,0.1869,0.1876,0.1862,0.1864,0.1871,0.1841,0.1844,0.1831,0.1818,0.1818,0.1814,0.1801,0.1828,0.1798,0.1802,0.182,0.1838,0.1847,0.1854,0.1755,0.1754,0.1754,0,0,0.1865,0.1871,0.1877,0.188,0.1884,0.1885,0.1885,0.1879,0.1879,0.1879,0.187,0.187,0.1845,0.1849,0.1846,0.1872,0.1856,0.186,0.1898,0.1916,0.1924,0.1931,0.1963,0.1972,0.1858,0.1858,0.1858,0,0.1867,0.1876,0.1877,0.1887,0.1897,0.189,0.1899,0.1903,0.1893,0.1902,0.1885,0.1887,0.1868,0.1888,0.1901,0.1883,0.1895,0.1872,0.1923,0.1929,0.1936,0.1967,0.1977,0.186,0.186,0.186,0.1859,0,0.1878,0.1887,0.1894,0.1907,0.1916,0.1922,0.1931,0.1936,0.1935,0.1939,0.1954,0.1939,0.1944,0.1934,0.1924,0.196,0.1956,0.1928,0.1906,0.1947,0.1977,0.1987,0.1863,0.1862,0.1861,0.1861,0,0,0.1872,0.1896,0.1897,0.1908,0.1928,0.1934,0.1959,0.1979,0.2001,0.1995,0.2022,0.2022,0.2018,0.2018,0.2001,0.2016,0.2068,0.1994,0.1994,0.2025,0.2123,0.2103,0.2111,0.2042,0.2044,0.2045,0.2129,0,0.1878,0.19,0.1914,0.1936,0.195,0.1965,0.1992,0.2012,0.2025,0.205,0.2054,0.2068,0.2048,0.2046,0.2066,0.2068,0.2094,0.2049,0.2081,0.2083,0.2058,0.2122,0.2004,0.2067,0.2138,0.214,0.2141,0,0.1883,0.19,0.1924,0.1958,0.1967,0.1982,0.2027,0.2049,0.2091,0.2104,0.2128,0.2126,0.2163,0.2126,0.2178,0.2149,0.2151,0.2149,0.2151,0.213,0.2081,0.2037,0.2081,0.203,0.2155,0.2154,0.2153,0,0.188,0.1907,0.1928,0.194,0.1979,0.1996,0.2018,0.2063,0.2094,0.2138,0.2163,0.2197,0.2217,0.2232,0.2241,0.2209,0.2295,0.2243,0.2235,0.2233,0.2142,0.2129,0.2139,0.2287,0.2287,0.2287,0.2286,0,0.1887,0.1901,0.1926,0.194,0.1972,0.1998,0.204,0.207,0.2121,0.2169,0.219,0.2229,0.2243,0.2284,0.228,0.2307,0.2331,0.2272,0.2261,0.2151,0.2139,0.2095,0.2075,0.229,0.2289,0.2288,0.2288,0,0.1882,0.1898,0.1923,0.1959,0.1971,0.1994,0.2048,0.2076,0.2133,0.2195,0.221,0.2273,0.2332,0.2355,0.2388,0.236,0.231,0.2373,0.2257,0.223,0.215,0.2136,0.2091,0.2028,0.2376,0.2377,0.2377,0,0.1881,0.1895,0.1931,0.1943,0.1957,0.1993,0.2017,0.2073,0.2108,0.2219,0.2246,0.2327,0.2385,0.2447,0.2407,0.2419,0.2335,0.2297,0.2212,0.2161,0.2137,0.2057,0.2001,0.2109,0.2106,0.2105,0.2103,0,0.1881,0.1893,0.1916,0.194,0.1959,0.1987,0.2025,0.2054,0.2132,0.2192,0.2278,0.2337,0.2409,0.236,0.2372,0.2351,0.218,0.2262,0.2228,0.1961,0.1856,0.1783,0.2056,0.2088,0.2089,0.209,0.2091,0.2092,0.1875,0.1886,0.1911,0.1929,0.1954,0.1968,0.1964,0.2021,0.2077,0.2132,0.2232,0.226,0.2263,0.2265,0.2243,0.2106,0.2112,0.1994,0.1996,0.1931,0.1823,0.2084,0.2086,0.2087,0.2089,0.209,0.2091,0,0.1842,0.1862,0.189,0.1905,0.1905,0.1927,0.1954,0.1933,0.1967,0.2032,0.2088,0.2061,0.2026,0.2008,0.1921,0.1835,0.1732,0.1774,0.1621,0.1589,0.1835,0.1774,0.1686,0.1686,0.1686,0.1686,0.1686,0.1686,0.1825,0.1829,0.1844,0.1839,0.1844,0.18,0.1789,0.1789,0.1805,0.178,0.1746,0.1775,0.1837,0.1802,0.1704,0.1653,0.1523,0.1439,0.147,0.1633,0.1652,0.1671,0.1609,0.1487,0.1487,0.1117,0.1115,0.1113]},{"header":{"parameterUnit":"m.s-1","parameterCategory":2,"la1":30.2991,"la2":30.254,"lo1":-89.0895,"lo2":-89.0444,"dy":0.0017,"dx":0.0017,"nx":28,"ny":28,"refTime":"2024-03-10T09:00:00:Z","depth":"0","parameterNumber":3,"parameterNumberName":"V-component_of_CURRENTS"},"data":[0,0,0,0,0,0,0,0,0,0,0,0,0,0,0,0,0,0,0,0,0,0,0,0,0,0,0,0,0,0,0,0,0,0,0,0,0,0,0,0,0,0,0,0,0,0,0,0,0,0,0,0,0,0,0,0,0,0,-0.0339,-0.0339,0,-0.038,-0.038,-0.0381,-0.0433,-0.0434,-0.0435,-0.0435,-0.042,-0.0419,-0.0418,0,0,0,0,0,0,0,0,0,0,0,0,0,-0.0326,-0.0326,-0.0339,-0.0339,-0.034,-0.038,-0.038,-0.0381,-0.0433,-0.0434,-0.0435,-0.0436,-0.0421,-0.042,-0.0418,0,0,0,0,0,0,0,0,0,0,0,0,0,-0.0347,-0.0326,-0.0339,-0.0369,-0.0372,-0.038,-0.038,-0.0381,-0.0433,-0.0434,-0.0435,-0.0436,-0.0421,-0.042,-0.0418,-0.0388,0,0,-0.0413,-0.0413,0,0,0,0,0,0,0,0,-0.0346,-0.0348,-0.0364,-0.0367,-0.037,-0.0401,-0.037,-0.038,-0.0433,-0.0412,-0.0435,-0.0437,-0.0407,-0.0406,-0.0415,-0.0387,-0.0387,-0.0413,-0.0412,-0.0412,-0.0411,0,0,0,0,0,0,0,-0.0345,-0.0347,-0.0357,-0.0365,-0.0368,-0.0387,-0.0392,-0.0373,-0.0403,-0.0414,-0.0417,-0.0419,-0.0408,-0.0417,-0.0415,-0.0386,-0.0413,-0.0412,-0.0411,-0.041,-0.0386,-0.0386,0,0,0,0,0,0,-0.0334,-0.0345,-0.0356,-0.0358,-0.0359,-0.0387,-0.0391,-0.0392,-0.0405,-0.0408,-0.0418,-0.0421,-0.0419,-0.0417,-0.0415,-0.0415,-0.0412,-0.041,-0.0409,-0.0386,-0.0386,-0.0386,0,0,0,0,0,0,-0.0333,-0.0334,-0.0354,-0.0351,-0.0355,-0.0385,-0.0385,-0.0392,-0.0402,-0.0408,-0.0411,-0.0421,-0.042,-0.0417,-0.0409,-0.0413,-0.0409,-0.0408,-0.0385,-0.0386,-0.0386,-0.0392,0,0,0,0,0,0,-0.0333,-0.0334,-0.0336,-0.035,-0.0355,-0.0355,-0.0384,-0.0392,-0.04,-0.0405,-0.0411,-0.0412,-0.042,-0.0412,-0.0408,-0.0411,-0.0407,-0.0385,-0.0385,-0.0386,-0.0391,-0.0392,-0.0393,0,0,0,0,0,-0.0332,-0.0329,-0.0336,-0.0338,-0.0355,-0.0354,-0.0358,-0.0384,-0.0399,-0.0398,-0.0413,-0.0412,-0.0413,-0.041,-0.0406,-0.0408,-0.0385,-0.0385,-0.0386,-0.0391,-0.0392,-0.0393,0,0,0,0,0,0,-0.033,-0.0334,-0.0342,-0.0342,-0.0345,-0.0362,-0.0364,-0.0378,-0.0389,-0.0391,-0.0405,-0.0406,-0.0406,-0.0401,-0.0398,-0.0405,-0.0401,-0.0401,-0.0407,-0.0408,-0.0409,-0.0384,-0.0406,0,0,0,0,0,-0.0327,-0.032,-0.0329,-0.0326,-0.0326,-0.0342,-0.0347,-0.0358,-0.0367,-0.0375,-0.0384,-0.0394,-0.0403,-0.0401,-0.0404,-0.0392,-0.0384,-0.0395,-0.0396,-0.0397,-0.0375,-0.0369,-0.0367,-0.0388,-0.0388,-0.0388,0,0,-0.0324,-0.0324,-0.0321,-0.0324,-0.0329,-0.0325,-0.0348,-0.0344,-0.0349,-0.0366,-0.0377,-0.0391,-0.0402,-0.0407,-0.0406,-0.0403,-0.0392,-0.0397,-0.0398,-0.0375,-0.037,-0.0367,-0.0365,-0.0389,-0.0389,-0.0389,0,0,-0.03,-0.0312,-0.0294,-0.0295,-0.0294,-0.0307,-0.0302,-0.0314,-0.0331,-0.0335,-0.0361,-0.0371,-0.0379,-0.0394,-0.0401,-0.04,-0.0399,-0.0412,-0.0391,-0.0388,-0.0385,-0.0383,-0.0391,-0.039,-0.041,-0.041,-0.041,0,-0.0296,-0.0281,-0.029,-0.0274,-0.0276,-0.0296,-0.0282,-0.0299,-0.0312,-0.0318,-0.0336,-0.0361,-0.0372,-0.038,-0.0394,-0.04,-0.0403,-0.0388,-0.0388,-0.0385,-0.0383,-0.0392,-0.039,-0.0411,-0.0411,-0.0411,-0.0411,0,-0.0259,-0.0252,-0.0241,-0.0232,-0.0235,-0.0225,-0.0245,-0.0252,-0.0275,-0.0294,-0.0308,-0.0332,-0.0345,-0.0362,-0.0379,-0.0376,-0.0387,-0.0392,-0.0382,-0.0381,-0.0391,-0.0389,-0.0411,-0.0411,-0.0411,-0.0411,0,0,-0.0231,-0.0218,-0.0213,-0.0205,-0.0213,-0.0207,-0.0216,-0.0227,-0.0225,-0.0257,-0.0258,-0.0295,-0.0311,-0.0319,-0.0346,-0.0345,-0.0349,-0.0361,-0.0361,-0.0365,-0.0351,-0.0348,-0.0346,-0.0358,-0.0357,-0.0357,-0.0372,0,-0.0199,-0.0166,-0.0171,-0.0149,-0.0139,-0.0161,-0.0167,-0.018,-0.0201,-0.0208,-0.0242,-0.0253,-0.0297,-0.0302,-0.0313,-0.0334,-0.0341,-0.0345,-0.0354,-0.0354,-0.0347,-0.0341,-0.0313,-0.0322,-0.037,-0.037,-0.0369,0,-0.016,-0.0144,-0.0119,-0.011,-0.0106,-0.0101,-0.0105,-0.0108,-0.0129,-0.0145,-0.0165,-0.0195,-0.0215,-0.0244,-0.0278,-0.0282,-0.0312,-0.0329,-0.0331,-0.0315,-0.0346,-0.0327,-0.0317,-0.0401,-0.0366,-0.0366,-0.0367,0,-0.0135,-0.0108,-0.0089,-0.0086,-0.0082,-0.0075,-0.0072,-0.0086,-0.0077,-0.0095,-0.0087,-0.0133,-0.0137,-0.0182,-0.024,-0.0258,-0.0266,-0.0296,-0.0322,-0.0323,-0.029,-0.0289,-0.035,-0.0303,-0.0303,-0.0303,-0.0303,0,-0.0107,-0.0087,-0.0073,-0.0062,-0.0029,-0.004,-0.0007,-0.0015,-0.0012,0.0018,-0.0046,-0.0028,-0.0117,-0.0144,-0.0211,-0.0257,-0.0249,-0.0304,-0.0317,-0.0295,-0.0294,-0.0358,-0.0417,-0.0304,-0.0304,-0.0303,-0.0303,0,-0.0084,-0.0079,-0.0048,-0.003,-0.0016,0.001,0.0048,0.0072,0.0064,0.0106,0.0104,0.0058,0.0025,-0.0065,-0.0127,-0.0202,-0.0297,-0.0273,-0.0248,-0.0257,-0.0368,-0.0428,-0.0478,-0.0519,-0.0307,-0.0307,-0.0307,0,-0.0072,-0.0056,-0.0014,0.0017,0.003,0.0071,0.0104,0.011,0.0148,0.017,0.0201,0.017,0.0173,0.0063,-0.0066,-0.0177,-0.0273,-0.0242,-0.0265,-0.0357,-0.0434,-0.0474,-0.0508,-0.0238,-0.0238,-0.0237,-0.0237,0,-0.0039,-0.0026,0.0002,0.0063,0.0107,0.0163,0.0217,0.026,0.0283,0.0326,0.0383,0.0389,0.0277,0.0182,0.0008,-0.0083,-0.03,-0.0235,-0.0328,-0.0375,-0.0422,-0.0473,-0.0263,-0.0232,-0.0233,-0.0233,-0.0233,-0.0233,-0.0006,0.0024,0.0066,0.0124,0.0176,0.0256,0.0318,0.0388,0.0472,0.0564,0.0546,0.059,0.0401,0.0178,0.0035,-0.0231,-0.0256,-0.0314,-0.0378,-0.041,-0.0447,-0.0231,-0.0216,-0.0216,-0.0217,-0.0217,-0.0217,0,0.0057,0.0086,0.0131,0.0207,0.0274,0.0292,0.0394,0.0473,0.0602,0.0685,0.0756,0.0694,0.0481,0.0216,-0.014,-0.0333,-0.0413,-0.0456,-0.0512,-0.054,-0.0338,-0.0333,-0.0343,-0.0343,-0.0343,-0.0343,-0.0343,-0.0343,0.0093,0.0158,0.0174,0.0288,0.034,0.0447,0.0515,0.0636,0.072,0.0847,0.0879,0.0875,0.0651,0.0037,-0.0407,-0.0518,-0.0658,-0.068,-0.0775,-0.0646,-0.0638,-0.0631,-0.064,-0.0714,-0.0714,-0.0932,-0.0935,-0.0937]}],[{"header":{"parameterUnit":"m.s-1","parameterCategory":2,"la1":30.2991,"la2":30.254,"lo1":-89.0895,"lo2":-89.0444,"dy":0.0017,"dx":0.0017,"nx":28,"ny":28,"refTime":"2024-03-10T09:00:00:Z","depth":"2","parameterNumber":2,"parameterNumberName":"U-component_of_CURRENTS"},"data":[0,0,0,0,0,0,0,0,0,0,0,0,0,0,0,0,0,0,0,0,0,0,0,0,0,0,0,0,0,0,0,0,0,0,0,0,0,0,0,0,0,0,0,0,0,0,0,0,0,0,0,0,0,0,0,0,0,0,0.1687,0.1687,0,0.1661,0.1661,0.1661,0.1696,0.1698,0.1699,0.17,0.1662,0.1659,0.1657,0,0,0,0,0,0,0,0,0,0,0,0,0,0.1653,0.1654,0.1687,0.1687,0.1687,0.1661,0.1661,0.166,0.1696,0.1698,0.1699,0.1701,0.1662,0.166,0.1657,0,0,0,0,0,0,0,0,0,0,0,0,0,0.165,0.1655,0.1687,0.1703,0.1704,0.1662,0.1661,0.166,0.1696,0.1698,0.17,0.1702,0.1663,0.166,0.1656,0.1591,0,0,0.1645,0.1644,0,0,0,0,0,0,0,0,0.1651,0.1651,0.1701,0.1702,0.1703,0.1686,0.1635,0.1637,0.1695,0.1697,0.17,0.1703,0.1668,0.1664,0.1652,0.1589,0.1588,0.1645,0.1643,0.1641,0.164,0,0,0,0,0,0,0,0.1651,0.1652,0.1675,0.1701,0.1702,0.1672,0.1675,0.1635,0.1669,0.1697,0.17,0.1699,0.1669,0.1656,0.1652,0.1587,0.1645,0.1642,0.164,0.1639,0.1599,0.16,0,0,0,0,0,0,0.1662,0.1653,0.1676,0.1675,0.1684,0.1672,0.1675,0.1688,0.167,0.167,0.1697,0.1701,0.1661,0.1656,0.165,0.1668,0.1642,0.1638,0.1636,0.1598,0.1599,0.16,0,0,0,0,0,0,0.1661,0.1664,0.1677,0.1664,0.1664,0.1671,0.1685,0.1686,0.1682,0.1671,0.1671,0.1694,0.1662,0.1655,0.165,0.1663,0.1637,0.1633,0.1596,0.1598,0.1599,0.1641,0,0,0,0,0,0,0.166,0.1665,0.1671,0.1665,0.1665,0.1672,0.1683,0.1684,0.1679,0.1684,0.1667,0.1665,0.1663,0.1656,0.1647,0.1658,0.1631,0.1595,0.1597,0.1599,0.1638,0.1644,0.1648,0,0,0,0,0,0.1659,0.1681,0.1671,0.1674,0.1676,0.1672,0.1669,0.1679,0.1677,0.1681,0.1683,0.1666,0.1663,0.1653,0.1642,0.1653,0.1594,0.1596,0.1599,0.1636,0.1643,0.1648,0,0,0,0,0,0,0.1675,0.1686,0.1676,0.17,0.1688,0.168,0.1683,0.1672,0.167,0.1679,0.1664,0.1662,0.1669,0.165,0.1639,0.1652,0.163,0.1631,0.1662,0.1668,0.1673,0.1706,0.1628,0,0,0,0,0,0.1675,0.1688,0.1686,0.1696,0.1697,0.1678,0.1673,0.1677,0.1675,0.1676,0.1667,0.1664,0.1664,0.166,0.1655,0.1638,0.1646,0.1645,0.165,0.1655,0.1677,0.1697,0.1706,0.1608,0.1608,0.1608,0,0,0.1677,0.1685,0.169,0.1697,0.1688,0.1695,0.1682,0.1684,0.1694,0.1668,0.1683,0.1674,0.1665,0.1675,0.1675,0.1662,0.1687,0.1658,0.1661,0.1681,0.1701,0.171,0.1719,0.161,0.1609,0.1609,0,0,0.1685,0.17,0.1708,0.1707,0.1703,0.1704,0.1704,0.1698,0.1708,0.1706,0.1707,0.1717,0.1692,0.171,0.1709,0.1731,0.1715,0.172,0.1765,0.1784,0.1793,0.18,0.1823,0.1832,0.172,0.172,0.172,0,0.168,0.17,0.1706,0.1714,0.1721,0.1711,0.1721,0.1725,0.1719,0.1734,0.1727,0.1731,0.1719,0.1744,0.1769,0.1744,0.1751,0.1738,0.1791,0.1799,0.1806,0.1827,0.1837,0.1722,0.1722,0.1722,0.1722,0,0.1697,0.1706,0.1715,0.1729,0.1738,0.1746,0.176,0.1773,0.1777,0.1783,0.1808,0.1798,0.1811,0.1802,0.1792,0.1834,0.1822,0.1796,0.1775,0.1818,0.1838,0.1847,0.1726,0.1725,0.1724,0.1724,0,0,0.1693,0.172,0.1721,0.1726,0.175,0.1759,0.1795,0.1825,0.1851,0.1855,0.1891,0.1898,0.1898,0.1899,0.1881,0.1896,0.1948,0.1872,0.1871,0.1895,0.1997,0.1944,0.1949,0.1925,0.1926,0.1928,0.199,0,0.1694,0.1716,0.1738,0.1757,0.1768,0.1795,0.183,0.1861,0.1884,0.1921,0.1933,0.1954,0.1932,0.1935,0.1954,0.195,0.1975,0.1935,0.1952,0.1954,0.1902,0.1959,0.1794,0.1832,0.1999,0.2001,0.2002,0,0.1699,0.1715,0.174,0.1774,0.1786,0.1808,0.1872,0.1901,0.1962,0.1981,0.2017,0.2022,0.2064,0.2026,0.2067,0.204,0.2038,0.2028,0.2029,0.1977,0.1919,0.1816,0.1842,0.2017,0.2016,0.2015,0.2014,0,0.1692,0.1715,0.174,0.1751,0.1796,0.1825,0.186,0.1921,0.1961,0.2024,0.2056,0.2096,0.2122,0.213,0.2127,0.2101,0.2164,0.2119,0.2074,0.207,0.1934,0.1915,0.216,0.2159,0.2159,0.2159,0.2159,0,0.1687,0.1703,0.1736,0.1751,0.179,0.1825,0.1882,0.1925,0.1995,0.2049,0.2087,0.2123,0.215,0.2182,0.2166,0.216,0.22,0.2108,0.209,0.1943,0.1925,0.2084,0.2074,0.2161,0.2161,0.2161,0.216,0,0.1675,0.1693,0.1721,0.177,0.1786,0.1818,0.1893,0.1931,0.2001,0.2075,0.21,0.2171,0.2206,0.2224,0.2243,0.2208,0.2199,0.2183,0.2015,0.1976,0.2084,0.2076,0.2147,0.2146,0.2145,0.2144,0.2143,0,0.167,0.1689,0.1737,0.1751,0.1774,0.1822,0.1856,0.1928,0.1968,0.209,0.2119,0.2192,0.221,0.2232,0.2191,0.217,0.2197,0.1998,0.1918,0.2111,0.2087,0.208,0.2073,0.1756,0.1752,0.1749,0.1747,0,0.1679,0.1704,0.1733,0.1763,0.1789,0.181,0.1863,0.1891,0.1983,0.204,0.2108,0.2134,0.2167,0.2058,0.204,0.2001,0.1986,0.1934,0.2189,0.1782,0.1747,0.1721,0.1727,0.1719,0.1722,0.1724,0.1725,0.1726,0.1688,0.171,0.1752,0.1767,0.1797,0.179,0.1776,0.1826,0.1871,0.1897,0.1996,0.1958,0.1951,0.1822,0.176,0.1723,0.1855,0.1748,0.1756,0.1768,0.1708,0.1673,0.1621,0.1623,0.1625,0.1627,0.1628,0,0.1658,0.17,0.1746,0.1748,0.1746,0.1768,0.177,0.1716,0.1711,0.1746,0.1755,0.1591,0.1508,0.1511,0.1413,0.1407,0.1381,0.1342,0.1285,0.1315,0.1341,0.1257,0.1052,0.105,0.1048,0.1046,0,0,0.1652,0.1661,0.1684,0.1678,0.1684,0.1621,0.1586,0.1512,0.1491,0.1418,0.1373,0.1408,0.1467,0.1226,0.1201,0.111,0.1201,0.1068,0.1536,0.15,0.1524,0.1589,0.1496,0,0,0,0,0]},{"header":{"parameterUnit":"m.s-1","parameterCategory":2,"la1":30.2991,"la2":30.254,"lo1":-89.0895,"lo2":-89.0444,"dy":0.0017,"dx":0.0017,"nx":28,"ny":28,"refTime":"2024-03-10T09:00:00:Z","depth":"2","parameterNumber":3,"parameterNumberName":"V-component_of_CURRENTS"},"data":[0,0,0,0,0,0,0,0,0,0,0,0,0,0,0,0,0,0,0,0,0,0,0,0,0,0,0,0,0,0,0,0,0,0,0,0,0,0,0,0,0,0,0,0,0,0,0,0,0,0,0,0,0,0,0,0,0,0,0.0127,0.0127,0,0.0093,0.0092,0.0091,-0.0032,-0.0035,-0.0037,-0.004,-0.0066,-0.0064,-0.0062,0,0,0,0,0,0,0,0,0,0,0,0,0,0.0147,0.0146,0.0127,0.0127,0.0127,0.0093,0.0092,0.0091,-0.0032,-0.0035,-0.0038,-0.0041,-0.0066,-0.0064,-0.0062,0,0,0,0,0,0,0,0,0,0,0,0,0,0.0125,0.0146,0.0127,0.0063,0.0057,0.0093,0.0092,0.0091,-0.0031,-0.0035,-0.0039,-0.0043,-0.0067,-0.0064,-0.0062,0.0032,0,0,-0.0054,-0.0053,0,0,0,0,0,0,0,0,0.0127,0.0124,0.0073,0.0067,0.0061,0.0033,0.0089,0.0073,-0.003,-0.0,-0.004,-0.0044,-0.0027,-0.0028,-0.003,0.0031,0.003,-0.0054,-0.0052,-0.0051,-0.005,0,0,0,0,0,0,0,0.0128,0.0126,0.0111,0.0073,0.0066,0.0057,0.0048,0.0086,0.0007,-0.0003,-0.0012,-0.001,-0.0032,-0.0032,-0.0031,0.0029,-0.0054,-0.0051,-0.005,-0.0049,-0.0007,-0.0007,0,0,0,0,0,0,0.0139,0.0127,0.0112,0.011,0.0088,0.0059,0.005,0.0044,0.0006,-0.0003,-0.0007,-0.0016,-0.0034,-0.0034,-0.0032,-0.0051,-0.0051,-0.0048,-0.0047,-0.0006,-0.0007,-0.0007,0,0,0,0,0,0,0.0139,0.0137,0.0114,0.012,0.0116,0.0063,0.0057,0.0045,0.0027,0.0003,-0.0007,-0.0015,-0.0037,-0.0036,-0.0041,-0.0049,-0.0047,-0.0045,-0.0006,-0.0007,-0.0007,-0.0007,0,0,0,0,0,0,0.014,0.0138,0.0133,0.0121,0.0116,0.0107,0.0061,0.0047,0.0036,0.0023,-0.0005,-0.0012,-0.004,-0.0045,-0.0039,-0.0045,-0.0043,-0.0005,-0.0006,-0.0007,-0.0006,-0.0007,-0.0008,0,0,0,0,0,0.014,0.0127,0.0133,0.0131,0.0113,0.0107,0.0103,0.0052,0.004,0.0024,-0.0004,-0.0012,-0.0048,-0.0042,-0.0035,-0.0041,-0.0005,-0.0006,-0.0007,-0.0006,-0.0007,-0.0008,0,0,0,0,0,0,0.0116,0.0114,0.0119,0.0102,0.0103,0.0086,0.0075,0.0066,0.0039,0.0028,0.0003,-0.0004,-0.0017,-0.0018,-0.0012,-0.0035,-0.0033,-0.0033,-0.0035,-0.0036,-0.0037,-0.0024,-0.0041,0,0,0,0,0,0.0124,0.0126,0.0121,0.0119,0.0119,0.0114,0.0109,0.0084,0.0066,0.0048,0.0026,0.0006,-0.0004,-0.0015,-0.0024,-0.0008,-0.0008,-0.0015,-0.0016,-0.0017,-0.0004,-0.0012,-0.0012,-0.0011,-0.0011,-0.0011,0,0,0.0123,0.0123,0.0125,0.0118,0.0121,0.0122,0.0098,0.0092,0.0083,0.006,0.0033,0.0016,0.0,-0.0018,-0.0023,-0.0026,-0.002,-0.0018,-0.0019,-0.0005,-0.0013,-0.0013,-0.0013,-0.0011,-0.0011,-0.0011,0,0,0.0134,0.0121,0.0133,0.0133,0.0139,0.0129,0.0132,0.0116,0.0087,0.0083,0.0049,0.0027,0.0019,-0.0013,-0.0021,-0.0016,-0.002,-0.0025,-0.0021,-0.003,-0.0029,-0.0029,-0.0039,-0.0039,-0.0032,-0.0032,-0.0032,0,0.014,0.0144,0.0136,0.0147,0.0149,0.0136,0.0147,0.0128,0.0105,0.0096,0.0064,0.004,0.002,0.0009,-0.0019,-0.0017,-0.0023,-0.0015,-0.003,-0.0029,-0.0029,-0.0039,-0.004,-0.0033,-0.0032,-0.0032,-0.0032,0,0.0158,0.0164,0.0169,0.0183,0.018,0.0184,0.0166,0.0149,0.0126,0.0108,0.0086,0.005,0.0028,0.0013,-0.0004,-0.0014,-0.0019,-0.0024,-0.0023,-0.0029,-0.004,-0.004,-0.0033,-0.0033,-0.0033,-0.0033,0,0,0.0177,0.0184,0.0187,0.0206,0.0197,0.0202,0.0186,0.0172,0.0172,0.0126,0.0116,0.0075,0.0053,0.0042,0.0016,0.0002,-0.0017,-0.0015,-0.0016,-0.0019,-0.0037,-0.0038,-0.0039,-0.0027,-0.0027,-0.0027,-0.0048,0,0.0204,0.0232,0.0218,0.0247,0.0263,0.0238,0.023,0.0214,0.0185,0.0162,0.0119,0.01,0.0064,0.005,0.0027,0.0002,-0.0017,-0.001,-0.0035,-0.0036,-0.0031,-0.0039,-0.0023,-0.004,-0.0049,-0.0049,-0.0049,0,0.023,0.0246,0.0273,0.0293,0.0296,0.0297,0.029,0.0281,0.0242,0.0216,0.0181,0.0147,0.0109,0.0079,0.0033,0.0038,-0.0,-0.0022,-0.0023,-0.0019,-0.0037,-0.0035,-0.0041,-0.005,-0.005,-0.005,-0.005,0,0.0262,0.0287,0.031,0.0314,0.0323,0.0322,0.0318,0.0297,0.03,0.0248,0.0247,0.0189,0.017,0.0114,0.0052,0.004,0.001,-0.0013,-0.0047,-0.0048,-0.0034,-0.0034,-0.0042,-0.0042,-0.0042,-0.0042,-0.0042,0,0.0298,0.0317,0.0325,0.0336,0.0369,0.0358,0.038,0.0359,0.0342,0.0363,0.028,0.0292,0.018,0.0144,0.0072,0.0016,0.0022,-0.0039,-0.0051,-0.0036,-0.0035,-0.0041,-0.004,-0.0042,-0.0042,-0.0042,-0.0042,0,0.034,0.0337,0.0369,0.0378,0.0385,0.0408,0.0427,0.0446,0.0419,0.044,0.0426,0.037,0.0324,0.0223,0.0139,0.0061,-0.0004,-0.0026,-0.0004,-0.0012,-0.0066,-0.0065,-0.0073,-0.0073,-0.0073,-0.0073,-0.0073,0,0.0362,0.0375,0.0406,0.0425,0.0429,0.0459,0.0485,0.0477,0.0509,0.0509,0.0534,0.0482,0.0472,0.0339,0.0185,0.0054,0.0029,-0.0024,-0.0048,-0.0057,-0.0068,-0.0067,-0.0066,-0.0037,-0.0037,-0.0037,-0.0037,0,0.0392,0.0394,0.0421,0.0467,0.0496,0.0557,0.0596,0.0638,0.0643,0.0676,0.0717,0.0705,0.0558,0.0425,0.0221,0.013,-0.001,-0.0025,-0.0032,-0.003,-0.0024,-0.0035,-0.0035,-0.0035,-0.0035,-0.0035,-0.0035,-0.0035,0.0411,0.0444,0.0467,0.0521,0.0554,0.0642,0.0706,0.0769,0.0846,0.0891,0.0867,0.0839,0.0652,0.0397,0.0227,0.0022,0.003,-0.0048,-0.0048,-0.0049,-0.0039,-0.0034,-0.0044,-0.0045,-0.0045,-0.0045,-0.0045,0,0.046,0.0487,0.052,0.0595,0.0653,0.066,0.0771,0.0847,0.0968,0.0974,0.1003,0.0827,0.0668,0.0444,0.015,-0.0013,-0.0035,-0.0071,-0.0064,-0.0063,-0.0063,-0.0055,-0.0064,-0.0065,-0.0066,-0.0066,0,0,0.0481,0.0544,0.0569,0.0667,0.0711,0.081,0.0883,0.0991,0.1027,0.1061,0.1014,0.0951,0.0695,0.048,0.0261,0.0091,0.0047,0.0056,0.0091,0.0127,0.0129,-0.0028,-0.0011,0,0,0,0,0]}],[{"header":{"parameterUnit":"m.s-1","parameterCategory":2,"la1":30.2991,"la2":30.254,"lo1":-89.0895,"lo2":-89.0444,"dy":0.0017,"dx":0.0017,"nx":28,"ny":28,"refTime":"2024-03-10T09:00:00:Z","depth":"4","parameterNumber":2,"parameterNumberName":"U-component_of_CURRENTS"},"data":[0,0,0,0,0,0,0,0,0,0,0,0,0,0,0,0,0,0,0,0,0,0,0,0,0,0,0,0,0,0,0,0,0,0,0,0,0,0,0,0,0,0,0,0,0,0,0,0,0,0,0,0,0,0,0,0,0,0,0.0645,0.0645,0,0.0696,0.0696,0.0697,0.0701,0.07,0.07,0.0699,0.0756,0.0758,0.076,0,0,0,0,0,0,0,0,0,0,0,0,0,0.0649,0.0648,0.0644,0.0645,0.0646,0.0695,0.0696,0.0697,0.0701,0.07,0.0699,0.0699,0.0755,0.0757,0.076,0,0,0,0,0,0,0,0,0,0,0,0,0,0.0668,0.0648,0.0644,0.0653,0.0655,0.0695,0.0696,0.0697,0.0701,0.07,0.0699,0.0698,0.0754,0.0757,0.076,0.0797,0,0,0.077,0.0771,0,0,0,0,0,0,0,0,0.0667,0.0668,0.0651,0.0653,0.0654,0.0691,0.0719,0.0731,0.0701,0.0684,0.0699,0.0698,0.0735,0.0739,0.0752,0.08,0.0802,0.077,0.0772,0.0773,0.0774,0,0,0,0,0,0,0,0.0666,0.0667,0.0665,0.0652,0.0654,0.0689,0.0689,0.0721,0.0714,0.0685,0.0686,0.0691,0.0736,0.0749,0.0753,0.0803,0.077,0.0773,0.0775,0.0776,0.09,0.0902,0,0,0,0,0,0,0.0654,0.0665,0.0663,0.0667,0.0658,0.0689,0.069,0.068,0.0714,0.0718,0.0692,0.0691,0.0744,0.0749,0.0755,0.0805,0.0773,0.0776,0.0778,0.0899,0.0901,0.0902,0,0,0,0,0,0,0.0654,0.0653,0.0661,0.0668,0.0671,0.0689,0.0679,0.0682,0.0713,0.0718,0.0722,0.0722,0.0743,0.0751,0.0804,0.0807,0.0777,0.078,0.0897,0.0899,0.0901,0.0902,0,0,0,0,0,0,0.0653,0.0652,0.066,0.0666,0.067,0.0694,0.0679,0.0683,0.0716,0.0716,0.0746,0.0748,0.0743,0.0799,0.0807,0.081,0.0783,0.0895,0.0898,0.0901,0.09,0.0904,0.0907,0,0,0,0,0,0.0653,0.0647,0.0659,0.0661,0.0673,0.0695,0.0701,0.0712,0.0719,0.0737,0.0762,0.0749,0.0821,0.0804,0.0812,0.0816,0.0894,0.0897,0.0901,0.0898,0.0903,0.0907,0,0,0,0,0,0,0.0657,0.0647,0.0661,0.0655,0.0684,0.0696,0.0716,0.0731,0.0767,0.0776,0.078,0.0786,0.0826,0.0837,0.0818,0.0863,0.0851,0.0856,0.0846,0.0851,0.0854,0.0905,0.0785,0,0,0,0,0,0.0663,0.066,0.0668,0.0679,0.0687,0.0714,0.0732,0.0745,0.077,0.0785,0.0805,0.0828,0.0846,0.0862,0.0883,0.0922,0.0939,0.0929,0.0932,0.0935,0.0985,0.0993,0.1001,0.0913,0.0913,0.0913,0,0,0.0676,0.067,0.0673,0.0682,0.0705,0.0723,0.0723,0.0756,0.0777,0.0788,0.0831,0.0849,0.0862,0.0892,0.091,0.0901,0.0967,0.0939,0.0941,0.0991,0.0997,0.1006,0.1013,0.0915,0.0915,0.0914,0,0,0.0695,0.069,0.0697,0.0714,0.0746,0.0754,0.077,0.0798,0.0813,0.0865,0.0864,0.0905,0.0936,0.0945,0.0951,0.1001,0.0986,0.0988,0.1046,0.1051,0.1059,0.1065,0.1082,0.109,0.0987,0.0987,0.0987,0,0.0712,0.0714,0.0712,0.0726,0.0741,0.0768,0.0791,0.081,0.0858,0.0872,0.0881,0.0956,0.0965,0.1001,0.1017,0.1008,0.1014,0.1017,0.1054,0.1062,0.1068,0.1084,0.1093,0.0987,0.0987,0.0987,0.0987,0,0.0734,0.0747,0.0754,0.0771,0.0791,0.0816,0.0832,0.0866,0.0891,0.0904,0.0965,0.1006,0.105,0.1045,0.1053,0.1101,0.1089,0.1052,0.1038,0.1077,0.1091,0.1101,0.0988,0.0988,0.0988,0.0988,0,0,0.0734,0.076,0.0767,0.0785,0.0812,0.0829,0.0862,0.0887,0.0911,0.097,0.1003,0.107,0.1104,0.1122,0.1133,0.1163,0.1205,0.1143,0.1143,0.1152,0.1229,0.115,0.1153,0.1159,0.1161,0.1163,0.1212,0,0.0757,0.0779,0.079,0.0832,0.0841,0.0869,0.0891,0.0921,0.095,0.0984,0.1036,0.1081,0.112,0.1156,0.1193,0.1211,0.1235,0.1198,0.1201,0.1202,0.1119,0.1163,0.1169,0.1219,0.1221,0.1223,0.1224,0,0.0767,0.078,0.0809,0.0846,0.0854,0.0889,0.0929,0.0957,0.0992,0.1021,0.1091,0.1116,0.121,0.1211,0.1308,0.1279,0.1277,0.1286,0.1285,0.1233,0.1142,0.1179,0.1241,0.124,0.1239,0.1237,0.1236,0,0.0746,0.0791,0.0811,0.0824,0.0867,0.0901,0.0935,0.0974,0.0997,0.106,0.1101,0.1179,0.1249,0.1283,0.1337,0.1317,0.1408,0.1355,0.1286,0.128,0.1332,0.1325,0.1402,0.1402,0.1401,0.1401,0.1401,0,0.0734,0.0757,0.0813,0.0825,0.0866,0.0903,0.0955,0.0995,0.1047,0.1071,0.114,0.1198,0.1274,0.1322,0.1343,0.1369,0.1411,0.1335,0.1296,0.1329,0.1321,0.1338,0.133,0.1403,0.1403,0.1402,0.1402,0,0.0693,0.0732,0.0763,0.0826,0.0856,0.0888,0.0973,0.1,0.1075,0.1118,0.1148,0.1233,0.1313,0.1364,0.1411,0.1382,0.1395,0.1372,0.1435,0.1393,0.126,0.1252,0.1313,0.1311,0.1309,0.1307,0.1306,0,0.0671,0.0677,0.0753,0.0782,0.0821,0.0885,0.0921,0.1005,0.103,0.1135,0.1144,0.1244,0.129,0.1323,0.1373,0.1395,0.1369,0.136,0.1311,0.13,0.1257,0.1251,0.1245,0.1303,0.1303,0.1302,0.1302,0,0.0616,0.0646,0.0667,0.0726,0.0786,0.0835,0.09,0.092,0.1001,0.1084,0.112,0.1155,0.1227,0.1273,0.1297,0.1306,0.1365,0.1341,0.1344,0.1298,0.1289,0.1246,0.1243,0.1295,0.1296,0.1297,0.1297,0,0.0581,0.0576,0.0609,0.0659,0.0718,0.0756,0.0814,0.0856,0.0901,0.1009,0.1018,0.1125,0.1204,0.1227,0.1253,0.1261,0.1239,0.1186,0.1197,0.1205,0.1147,0.1118,0.1068,0,0,0,0,0,0.0548,0.0529,0.0544,0.0592,0.0638,0.0686,0.0769,0.0824,0.0916,0.0911,0.0957,0.1012,0.1067,0.1128,0.1116,0.1212,0.1245,0.1193,0.1189,0.126,0.1268,0.1211,0,0,0,0,0,0,0.053,0.0529,0.0512,0.0511,0.0534,0.059,0.0651,0.0725,0.0729,0.0825,0.0868,0.0937,0.1016,0.1056,0.1089,0.1106,0.1081,0.1256,0.1253,0.1256,0.1263,0.1269,0.1213,0,0,0,0,0]},{"header":{"parameterUnit":"m.s-1","parameterCategory":2,"la1":30.2991,"la2":30.254,"lo1":-89.0895,"lo2":-89.0444,"dy":0.0017,"dx":0.0017,"nx":28,"ny":28,"refTime":"2024-03-10T09:00:00:Z","depth":"4","parameterNumber":3,"parameterNumberName":"V-component_of_CURRENTS"},"data":[0,0,0,0,0,0,0,0,0,0,0,0,0,0,0,0,0,0,0,0,0,0,0,0,0,0,0,0,0,0,0,0,0,0,0,0,0,0,0,0,0,0,0,0,0,0,0,0,0,0,0,0,0,0,0,0,0,0,0.0506,0.0506,0,0.0481,0.0481,0.048,0.0475,0.0475,0.0476,0.0476,0.0456,0.0456,0.0455,0,0,0,0,0,0,0,0,0,0,0,0,0,0.0462,0.0463,0.0506,0.0506,0.0505,0.0481,0.0481,0.048,0.0475,0.0476,0.0476,0.0476,0.0457,0.0456,0.0455,0,0,0,0,0,0,0,0,0,0,0,0,0,0.0463,0.0463,0.0506,0.05,0.0499,0.0481,0.0481,0.048,0.0475,0.0476,0.0476,0.0476,0.0457,0.0456,0.0455,0.0441,0,0,0.0452,0.0451,0,0,0,0,0,0,0,0,0.0463,0.0465,0.0501,0.0501,0.05,0.0482,0.0458,0.0468,0.0475,0.0484,0.0476,0.0476,0.0465,0.0464,0.0458,0.0441,0.044,0.0451,0.0451,0.045,0.045,0,0,0,0,0,0,0,0.0463,0.0465,0.0496,0.0501,0.05,0.0469,0.047,0.0459,0.0473,0.0483,0.0483,0.0481,0.0465,0.0459,0.0457,0.0439,0.0451,0.045,0.045,0.0449,0.0419,0.0419,0,0,0,0,0,0,0.0472,0.0466,0.0496,0.0495,0.0482,0.047,0.0471,0.0487,0.0473,0.0471,0.048,0.048,0.046,0.0458,0.0457,0.0463,0.045,0.0449,0.0449,0.0419,0.0419,0.0419,0,0,0,0,0,0,0.0471,0.0475,0.0497,0.0479,0.0479,0.0471,0.0488,0.0486,0.0489,0.0471,0.0469,0.0486,0.0461,0.0458,0.0454,0.0462,0.0449,0.0448,0.0419,0.0419,0.0419,0.0462,0,0,0,0,0,0,0.047,0.0476,0.0486,0.048,0.0481,0.049,0.0488,0.0486,0.0486,0.0487,0.0475,0.0473,0.0461,0.0455,0.0453,0.046,0.0447,0.0419,0.0419,0.0419,0.046,0.0463,0.0465,0,0,0,0,0,0.0469,0.0482,0.0487,0.049,0.0498,0.049,0.0487,0.0481,0.0487,0.0485,0.0481,0.0473,0.0451,0.0455,0.0451,0.0458,0.0419,0.0419,0.0419,0.0459,0.0462,0.0465,0,0,0,0,0,0,0.0465,0.0482,0.0488,0.0506,0.05,0.0489,0.0488,0.0487,0.0482,0.0486,0.0474,0.0471,0.047,0.0454,0.0458,0.0446,0.0433,0.0432,0.0465,0.0468,0.047,0.0464,0.0446,0,0,0,0,0,0.0471,0.0489,0.0492,0.0504,0.0506,0.05,0.0497,0.0494,0.0488,0.0487,0.0481,0.0471,0.0463,0.0459,0.0447,0.0442,0.0416,0.0442,0.0444,0.0446,0.0438,0.0409,0.0409,0.0417,0.0417,0.0417,0,0,0.0475,0.0484,0.0495,0.0504,0.0503,0.0506,0.0499,0.0498,0.0504,0.0485,0.0493,0.048,0.0463,0.0459,0.0456,0.045,0.043,0.0446,0.0448,0.0438,0.0409,0.0408,0.0407,0.0417,0.0417,0.0417,0,0,0.0479,0.05,0.0511,0.0512,0.0512,0.051,0.0515,0.0511,0.0514,0.0513,0.0505,0.0495,0.0483,0.0471,0.0464,0.0468,0.0444,0.0468,0.0476,0.045,0.0449,0.0448,0.0418,0.0414,0.0469,0.0469,0.0469,0,0.0479,0.0503,0.0509,0.0515,0.0523,0.0518,0.0529,0.0527,0.0521,0.0526,0.052,0.0497,0.0487,0.0478,0.048,0.0475,0.0453,0.0472,0.0454,0.0452,0.045,0.0419,0.0414,0.0471,0.0471,0.0471,0.047,0,0.0491,0.0508,0.0515,0.0532,0.0536,0.0544,0.0549,0.0552,0.0557,0.0554,0.0547,0.0522,0.0509,0.0503,0.0495,0.0479,0.0467,0.0463,0.045,0.0452,0.0419,0.0413,0.0474,0.0473,0.0473,0.0472,0,0,0.0499,0.0521,0.0525,0.0541,0.0552,0.056,0.0572,0.0583,0.0595,0.0577,0.0582,0.0558,0.0543,0.0532,0.0515,0.0485,0.046,0.0471,0.0468,0.0446,0.0397,0.0374,0.0364,0.0456,0.0455,0.0455,0.0381,0,0.0508,0.0532,0.0541,0.0568,0.0585,0.0592,0.0608,0.0615,0.0614,0.0615,0.0586,0.0581,0.0557,0.0551,0.0519,0.0475,0.0444,0.0479,0.0392,0.0389,0.0373,0.0357,0.0452,0.0377,0.0375,0.0374,0.0373,0,0.052,0.0536,0.0569,0.0602,0.0612,0.0627,0.0658,0.0671,0.0667,0.0664,0.0643,0.0619,0.058,0.0558,0.0472,0.0497,0.045,0.0406,0.0403,0.0358,0.0354,0.0371,0.0362,0.0363,0.0364,0.0364,0.0365,0,0.0535,0.056,0.0594,0.0605,0.0636,0.0657,0.0678,0.0688,0.0708,0.0696,0.0692,0.0643,0.0619,0.0547,0.0463,0.0469,0.0358,0.0361,0.0289,0.0287,0.0313,0.0315,0.0294,0.0294,0.0294,0.0294,0.0294,0,0.0551,0.0577,0.0606,0.0629,0.0668,0.0685,0.0729,0.0734,0.0746,0.0761,0.0723,0.0699,0.0614,0.0544,0.0466,0.0354,0.0362,0.0277,0.0262,0.0333,0.0338,0.0309,0.0311,0.0291,0.0292,0.0292,0.0293,0,0.057,0.0586,0.0628,0.0668,0.068,0.0716,0.0768,0.0792,0.0796,0.0807,0.0804,0.0744,0.065,0.0552,0.043,0.036,0.0255,0.0216,0.0291,0.0283,0.02,0.0206,0.0125,0.0124,0.0122,0.0121,0.012,0,0.0577,0.0602,0.0663,0.0687,0.0711,0.076,0.0792,0.0818,0.0838,0.0824,0.0821,0.0743,0.0689,0.0492,0.0393,0.0237,0.0217,0.016,0.0178,0.0187,0.0181,0.0189,0.0196,0.0118,0.0118,0.0118,0.0117,0,0.0592,0.0626,0.067,0.0723,0.0762,0.0807,0.0849,0.0861,0.0881,0.0882,0.0819,0.0721,0.0613,0.0477,0.0358,0.0247,0.0193,0.0146,0.0148,0.0165,0.0178,0.0175,0.0184,0.0113,0.0114,0.0114,0.0114,0,0.0604,0.0642,0.0703,0.0749,0.08,0.0833,0.0856,0.0864,0.0878,0.0853,0.0826,0.0714,0.0655,0.0481,0.0367,0.0258,0.0232,0.0191,0.019,0.0194,0.0237,0.0265,0.0203,0,0,0,0,0,0.0602,0.0652,0.0711,0.0762,0.0819,0.0843,0.0883,0.0898,0.0902,0.0857,0.0844,0.0739,0.0561,0.0485,0.0371,0.0348,0.0219,0.0209,0.0174,0.0088,0.0093,0.0129,0,0,0,0,0,0,0.0602,0.0665,0.0713,0.0767,0.08,0.0852,0.0878,0.0879,0.0851,0.0837,0.0746,0.07,0.0534,0.0629,0.0366,0.0333,0.029,0.0133,0.013,0.0085,0.009,0.0094,0.0133,0,0,0,0,0]}]]